| time (UTC) | temp C | wind direction | speed KPH | gust KPH | rain 1hr cm | rain 24hr cm | rain mn cm | humidity % | barometer mb |
| 20260510190115 | 13 | 140 | 8.0 | 12.9 | 0.00 | 0.00 | 0.00 | 48 | 1009.8 |
| 20260510184605 | 14 | 87 | 0.0 | 9.7 | 0.00 | 0.00 | 0.00 | 43 | 1009.8 |
| 20260510183058 | 14 | 344 | 0.0 | 6.4 | 0.00 | 0.00 | 0.00 | 31 | 1009.7 |
| 20260510181557 | 13 | 335 | 0.0 | 8.0 | 0.00 | 0.00 | 0.00 | 33 | 1009.7 |
| 20260510180100 | 13 | 327 | 6.4 | 12.9 | 0.00 | 0.00 | 0.00 | 30 | 1009.7 |
| 20260510174603 | 13 | 356 | 1.6 | 14.5 | 0.00 | 0.00 | 0.00 | 32 | 1009.5 |
| 20260510173056 | 15 | 359 | 4.8 | 9.7 | 0.00 | 0.00 | 0.00 | 31 | 1009.3 |
| 20260510171550 | 15 | 354 | 8.0 | 12.9 | 0.00 | 0.00 | 0.00 | 33 | 1009.1 |
| 20260510170049 | 14 | 1 | 0.0 | 4.8 | 0.00 | 0.00 | 0.00 | 38 | 1009.1 |
| 20260510164554 | 13 | 141 | 1.6 | 8.0 | 0.00 | 0.00 | 0.00 | 39 | 1009.0 |
| 20260510163046 | 14 | 19 | 4.8 | 9.7 | 0.00 | 0.00 | 0.00 | 35 | 1008.7 |
| 20260510161541 | 14 | 23 | 3.2 | 17.7 | 0.00 | 0.00 | 0.00 | 35 | 1008.2 |
| 20260510160040 | 15 | 77 | 3.2 | 12.9 | 0.00 | 0.00 | 0.00 | 34 | 1008.1 |
| 20260510154541 | 15 | 86 | 3.2 | 22.5 | 0.00 | 0.00 | 0.00 | 36 | 1008.1 |
| 20260510153037 | 15 | 115 | 4.8 | 12.9 | 0.00 | 0.00 | 0.00 | 33 | 1008.1 |
| 20260510151541 | 15 | 106 | 3.2 | 14.5 | 0.00 | 0.00 | 0.00 | 32 | 1007.9 |
| 20260510150039 | 14 | 68 | 3.2 | 8.0 | 0.00 | 0.00 | 0.00 | 31 | 1008.0 |
| 20260510144546 | 14 | 41 | 3.2 | 11.3 | 0.00 | 0.00 | 0.00 | 30 | 1007.8 |
| 20260510143032 | 15 | 49 | 1.6 | 8.0 | 0.00 | 0.00 | 0.00 | 28 | 1007.4 |
| 20260510141528 | 13 | 8 | 0.0 | 1.6 | 0.00 | 0.00 | 0.00 | 34 | 1007.7 |
| 20260510140026 | 11 | 51 | 0.0 | 11.3 | 0.00 | 0.00 | 0.00 | 35 | 1007.5 |
| 20260510134526 | 12 | 84 | 0.0 | 4.8 | 0.00 | 0.00 | 0.00 | 32 | 1007.5 |
| 20260510133022 | 11 | 93 | 0.0 | 0.0 | 0.00 | 0.00 | 0.00 | 34 | 1007.8 |
| 20260510131520 | 11 | 93 | 0.0 | 8.0 | 0.00 | 0.00 | 0.00 | 31 | 1007.5 |
| 20260510130022 | 11 | 342 | 0.0 | 0.0 | 0.00 | 0.00 | 0.00 | 30 | 1007.0 |
| 20260510124516 | 11 | 18 | 0.0 | 8.0 | 0.00 | 0.00 | 0.00 | 30 | 1006.9 |
| 20260510123016 | 10 | 37 | 0.0 | 3.2 | 0.00 | 0.00 | 0.00 | 31 | 1006.9 |
| 20260510121513 | 8 | 2 | 0.0 | 0.0 | 0.00 | 0.00 | 0.00 | 34 | 1006.7 |
| 20260510120010 | 8 | 290 | 0.0 | 0.0 | 0.00 | 0.00 | 0.00 | 35 | 1006.5 |
| 20260510114506 | 9 | 320 | 0.0 | 0.0 | 0.00 | 0.00 | 0.00 | 34 | 1006.6 |
| 20260510113002 | 10 | 320 | 0.0 | 1.6 | 0.00 | 0.00 | 0.00 | 33 | 1006.4 |
| 20260510111609 | 10 | 320 | 0.0 | 8.0 | 0.00 | 0.00 | 0.00 | 32 | 1006.3 |
| 20260510110057 | 10 | 332 | 4.8 | 8.0 | 0.00 | 0.00 | 0.00 | 32 | 1006.3 |
| 20260510104610 | 11 | 352 | 4.8 | 12.9 | 0.00 | 0.00 | 0.00 | 32 | 1005.9 |
| 20260510103054 | 11 | 349 | 6.4 | 9.7 | 0.00 | 0.00 | 0.00 | 32 | 1005.8 |
| 20260510101559 | 11 | 354 | 6.4 | 9.7 | 0.00 | 0.00 | 0.00 | 33 | 1005.6 |
| 20260510100059 | 11 | 347 | 4.8 | 9.7 | 0.00 | 0.00 | 0.00 | 33 | 1005.7 |
| 20260510094555 | 11 | 351 | 3.2 | 6.4 | 0.00 | 0.00 | 0.00 | 33 | 1005.6 |
| 20260510093043 | 12 | 328 | 1.6 | 8.0 | 0.00 | 0.00 | 0.00 | 32 | 1005.4 |
| 20260510091542 | 12 | 353 | 4.8 | 16.1 | 0.00 | 0.00 | 0.00 | 32 | 1005.5 |
| 20260510090040 | 12 | 345 | 6.4 | 11.3 | 0.00 | 0.00 | 0.00 | 30 | 1005.3 |
| 20260510084539 | 12 | 333 | 3.2 | 8.0 | 0.00 | 0.00 | 0.00 | 29 | 1005.3 |
| 20260510083042 | 13 | 320 | 1.6 | 11.3 | 0.00 | 0.00 | 0.00 | 29 | 1005.2 |
| 20260510081536 | 12 | 330 | 4.8 | 12.9 | 0.00 | 0.00 | 0.00 | 29 | 1005.2 |
| 20260510080032 | 12 | 340 | 0.0 | 4.8 | 0.00 | 0.00 | 0.00 | 30 | 1005.3 |
| 20260510074537 | 12 | 360 | 1.6 | 8.0 | 0.00 | 0.00 | 0.00 | 29 | 1005.5 |
| 20260510073030 | 12 | 326 | 1.6 | 4.8 | 0.00 | 0.00 | 0.00 | 28 | 1005.6 |
| 20260510071528 | 12 | 345 | 0.0 | 4.8 | 0.00 | 0.00 | 0.00 | 27 | 1005.9 |
| 20260510070032 | 12 | 328 | 0.0 | 4.8 | 0.00 | 0.00 | 0.00 | 26 | 1006.0 |
| 20260510064524 | 12 | 327 | 3.2 | 6.4 | 0.00 | 0.00 | 0.00 | 27 | 1006.1 |
| 20260510063024 | 12 | 303 | 0.0 | 3.2 | 0.00 | 0.00 | 0.00 | 27 | 1006.1 |
| 20260510061520 | 12 | 263 | 0.0 | 4.8 | 0.00 | 0.00 | 0.00 | 25 | 1006.1 |
| 20260510060017 | 12 | 270 | 0.0 | 0.0 | 0.00 | 0.00 | 0.00 | 25 | 1006.4 |
| 20260510054516 | 12 | 221 | 0.0 | 6.4 | 0.00 | 0.00 | 0.00 | 25 | 1006.4 |
| 20260510053015 | 12 | 193 | 0.0 | 9.7 | 0.00 | 0.00 | 0.00 | 25 | 1006.4 |
| 20260510051516 | 12 | 229 | 1.6 | 12.9 | 0.00 | 0.00 | 0.00 | 25 | 1006.4 |
| 20260510050014 | 12 | 207 | 3.2 | 9.7 | 0.00 | 0.00 | 0.00 | 26 | 1006.6 |
| 20260510044514 | 12 | 158 | 4.8 | 16.1 | 0.00 | 0.00 | 0.00 | 26 | 1006.7 |
| 20260510043014 | 12 | 186 | 3.2 | 9.7 | 0.00 | 0.00 | 0.00 | 26 | 1006.7 |
| 20260510041512 | 12 | 194 | 0.0 | 8.0 | 0.00 | 0.00 | 0.00 | 26 | 1006.7 |
| 20260510040012 | 12 | 180 | 0.0 | 6.4 | 0.00 | 0.00 | 0.00 | 27 | 1006.7 |
| 20260510034511 | 12 | 193 | 0.0 | 8.0 | 0.00 | 0.00 | 0.00 | 27 | 1006.8 |
| 20260510033011 | 12 | 191 | 0.0 | 9.7 | 0.00 | 0.00 | 0.00 | 27 | 1006.7 |
| 20260510031511 | 12 | 201 | 0.0 | 4.8 | 0.00 | 0.00 | 0.00 | 27 | 1006.6 |
| 20260510030010 | 12 | 203 | 0.0 | 4.8 | 0.00 | 0.00 | 0.00 | 27 | 1006.5 |
| 20260510024515 | 12 | 191 | 0.0 | 1.6 | 0.00 | 0.00 | 0.00 | 27 | 1006.3 |
| 20260510023009 | 13 | 196 | 0.0 | 1.6 | 0.00 | 0.00 | 0.00 | 27 | 1006.1 |
| 20260510021509 | 13 | 199 | 0.0 | 1.6 | 0.00 | 0.00 | 0.00 | 26 | 1006.0 |
| 20260510020008 | 13 | 194 | 0.0 | 6.4 | 0.00 | 0.00 | 0.00 | 26 | 1005.9 |
| 20260510014510 | 14 | 226 | 0.0 | 1.6 | 0.00 | 0.00 | 0.00 | 25 | 1005.8 |
| 20260510013006 | 15 | 283 | 0.0 | 12.9 | 0.00 | 0.00 | 0.00 | 24 | 1005.7 |
| 20260510011506 | 16 | 325 | 3.2 | 14.5 | 0.00 | 0.00 | 0.00 | 24 | 1005.6 |
| 20260510010005 | 16 | 274 | 3.2 | 20.9 | 0.00 | 0.00 | 0.00 | 23 | 1005.5 |
| 20260510004506 | 16 | 3 | 6.4 | 19.3 | 0.00 | 0.00 | 0.00 | 22 | 1005.6 |
| 20260510003004 | 16 | 285 | 4.8 | 16.1 | 0.00 | 0.00 | 0.00 | 22 | 1005.6 |
| 20260510001505 | 17 | 333 | 3.2 | 24.1 | 0.00 | 0.00 | 0.00 | 22 | 1005.6 |
| 20260510000000 | 17 | 281 | 3.2 | 16.1 | 0.00 | 0.00 | 0.00 | 23 | 1005.5 |
| 20260509234611 | 17 | 269 | 4.8 | 14.5 | 0.00 | 0.00 | 0.00 | 23 | 1005.7 |
| 20260509233059 | 18 | 281 | 4.8 | 16.1 | 0.00 | 0.00 | 0.00 | 22 | 1005.7 |
| 20260509231558 | 18 | 334 | 3.2 | 11.3 | 0.00 | 0.00 | 0.00 | 22 | 1005.8 |
| 20260509230056 | 18 | 300 | 4.8 | 14.5 | 0.00 | 0.00 | 0.00 | 21 | 1005.9 |
| 20260509224553 | 17 | 359 | 4.8 | 20.9 | 0.00 | 0.00 | 0.00 | 22 | 1005.9 |
| 20260509223057 | 17 | 347 | 9.7 | 25.7 | 0.00 | 0.00 | 0.00 | 21 | 1006.3 |
| 20260509221551 | 18 | 312 | 11.3 | 24.1 | 0.00 | 0.00 | 0.00 | 21 | 1006.3 |
| 20260509220059 | 18 | 253 | 8.0 | 17.7 | 0.00 | 0.00 | 0.00 | 21 | 1006.7 |
| 20260509214547 | 18 | 299 | 6.4 | 16.1 | 0.00 | 0.00 | 0.00 | 22 | 1006.9 |
| 20260509213043 | 18 | 277 | 6.4 | 19.3 | 0.00 | 0.00 | 0.00 | 21 | 1007.0 |
| 20260509211544 | 19 | 263 | 4.8 | 16.1 | 0.00 | 0.00 | 0.00 | 21 | 1007.6 |
| 20260509210037 | 18 | 296 | 11.3 | 24.1 | 0.00 | 0.00 | 0.00 | 22 | 1007.8 |
| 20260509204544 | 18 | 261 | 6.4 | 20.9 | 0.00 | 0.00 | 0.00 | 22 | 1008.1 |
| 20260509203037 | 18 | 359 | 6.4 | 20.9 | 0.00 | 0.00 | 0.00 | 20 | 1008.1 |
| 20260509201534 | 18 | 232 | 8.0 | 20.9 | 0.00 | 0.00 | 0.00 | 22 | 1008.2 |
| 20260509200039 | 18 | 293 | 8.0 | 17.7 | 0.00 | 0.00 | 0.00 | 22 | 1008.3 |
| 20260509194540 | 17 | 279 | 8.0 | 25.7 | 0.00 | 0.00 | 0.00 | 23 | 1008.4 |
| 20260509193040 | 17 | 307 | 8.0 | 20.9 | 0.00 | 0.00 | 0.00 | 20 | 1008.5 |
| 20260509191531 | 18 | 359 | 9.7 | 22.5 | 0.00 | 0.00 | 0.00 | 21 | 1008.5 |